Location: Seagrave Observatory
(41.8500°N, 71.5833°W)
Time: 08:53:27
(UTC-04:00)

Daily predictions for brighter satellites

Satellite Brightness Start Highest point End
(mag) Time Altitude Azimuth Time Altitude Azimuth Time Altitude Azimuth
Meteor 2-21 Rocket 4.4 18:15:52 10° S 18:21:57 80° E 18:28:01 10° N
USA 116 4.5 18:17:29 10° NNE 18:22:41 72° ESE 18:28:02 10° S
Cosmos 1842 Rocket 3.9 18:19:49 10° SSE 18:24:02 44° E 18:28:17 10° NNE
Cosmos 1908 4.4 18:23:03 10° SE 18:26:07 22° E 18:29:10 10° NE
Cosmos 2237 Rocket 4.1 18:27:09 10° NNE 18:28:23 11° NE 18:29:37 10° NE
Cosmos 921 Rocket 3.8 18:25:28 10° N 18:29:30 32° ENE 18:33:27 10° SE
MOS 1 4.4 18:25:37 10° SSE 18:31:09 57° ENE 18:36:42 10° N
DELTA 2 R/B (1) 3.8 18:26:48 10° W 18:32:20 68° S 18:37:53 10° ESE
Cosmos 1400 Rocket 2.8 18:28:43 10° N 18:32:45 62° ENE 18:36:40 10° SSE
MTI 3.7 18:32:25 10° NNE 18:35:38 80° ESE 18:38:50 10° S
Cosmos 1500 Rocket 3.6 18:32:29 10° N 18:36:46 53° E 18:40:59 10° SSE
CZ-4 R/B 4.4 18:32:48 10° SSE 18:36:55 73° ENE 18:41:03 10° N
CZ-4 R/B 2.2 18:38:39 10° S 18:42:48 58° W 18:46:55 10° NNW
Cosmos 1626 2.1 18:40:50 10° N 18:44:36 89° W 18:48:19 10° S
CZ-2C R/B 4.2 18:40:39 10° N 18:45:08 63° WNW 18:49:31 10° SSW
Cosmos 2366 rocket 4.1 18:39:13 10° S 18:45:26 88° W 18:51:39 10° N
BREEZE-M DEB (TANK) 1.3 18:44:09 10° SW 18:46:15 47° SE 18:47:43 16° ENE
ALOS 2.6 18:42:48 10° SE 18:47:11 42° ENE 18:51:35 10° N
Cosmos 1420 Rocket 4.2 18:45:31 10° N 18:50:42 49° ENE 18:55:48 10° SE
Cosmos 2360 Rocket 2.2 18:46:39 10° NNW 18:52:21 83° ENE 18:58:01 10° SSE
APEX 3.6 18:51:31 10° S 18:54:21 27° ESE 18:55:47 18° ENE
COSMOS 2428 3.1 18:50:15 10° N 18:55:36 41° ENE 19:00:56 10° SE
Thor Agena Rocket 4.1 18:52:42 10° NNE 18:57:17 33° E 19:01:48 10° SSE
Cosmos 2333 Rocket 3.3 18:53:57 10° N 18:58:37 25° NE 19:01:35 17° E
Cosmos 158 Rocket 4.1 18:54:34 10° S 18:59:23 48° ESE 19:04:22 10° NNE
Cosmos 2322 Rocket 4.0 18:55:14 10° NW 19:00:15 34° WSW 19:05:15 10° SSW
COSMO-SKYMED 1 2.6 18:56:17 10° NNE 19:00:40 88° WNW 19:05:00 10° SSW
Cosmos 1833 4.3 18:55:19 10° SSW 19:01:01 80° WNW 19:06:41 10° NNE
MONITOR-E 4.3 18:58:01 10° S 19:01:04 76° WSW 19:04:10 10° NNW
BREEZE-M DEB (TANK) 3.9 18:57:17 10° WNW 19:01:29 73° NNE 19:18:45 10° ESE
Cosmos 2219 3.7 18:58:35 10° S 19:03:49 37° ESE 19:09:03 10° NE
Sich 1 4.1 19:02:32 10° NNE 19:06:06 24° ENE 19:07:31 21° ESE
Abrixas 4.1 19:08:26 10° S 19:09:11 14° SSE 19:09:11 14° SSE
Abrixas rocket 3.8 19:10:42 10° WNW 19:13:31 25° N 19:14:57 19° NE
Cosmos 1805 Rocket 3.8 19:11:08 10° N 19:15:21 45° ENE 19:19:35 10° SSE
FENGYUN 3A 3.6 19:11:58 10° SSE 19:17:21 81° ENE 19:22:48 10° N
Cosmos 1315 Rocket 3.0 19:13:20 10° NNW 19:17:25 79° W 19:21:31 10° S
FengYun 1-2 T 4.4 19:12:22 10° SE 19:17:37 49° ENE 19:22:54 10° N
Cosmos 44 3.0 19:16:03 10° SSW 19:20:21 59° ESE 19:23:08 21° NE
Cosmos 1000 Rocket 4.4 19:15:35 10° N 19:21:48 69° E 19:27:57 10° SSE
Cosmos 1821 Rocket 4.0 19:16:05 10° S 19:22:06 60° E 19:28:14 10° NNE
Cosmos 1666 Rocket 4.1 19:20:13 10° N 19:24:14 35° ENE 19:25:01 32° E
Cosmos 2322 4.1 19:19:23 10° NNW 19:25:05 68° WSW 19:30:44 10° SSE
Cosmos 1934 Rocket 4.2 19:19:56 10° SSE 19:26:00 49° E 19:32:06 10° NNE
MOS 1-B Rocket 4.5 19:25:28 26° ESE 19:27:39 34° ENE 19:33:04 10° N
USA 267 3.8 19:25:18 25° E 19:28:12 35° SE 19:34:04 10° SSW
Cosmos 2239 Rocket 4.4 19:23:16 10° S 19:29:19 68° E 19:35:27 10° NNE
Cosmos 1633 Rocket 3.6 19:27:37 10° N 19:31:28 35° ENE 19:31:28 35° ENE
Cosmos 1269 Rocket 3.9 19:27:16 10° S 19:32:30 70° ESE 19:37:46 10° NNE
RESURS DK-1 4.3 19:36:50 10° NW 19:40:28 30° WSW 19:44:05 10° S
SJ-6B 2.6 19:40:35 58° ENE 19:40:35 58° ENE 19:44:11 10° N
Cosmos 2219 Rocket 2.2 19:35:30 10° NNW 19:41:02 57° ENE 19:43:16 34° SE
Lacrosse 5 rocket 4.0 19:40:31 10° NNW 19:41:35 11° N 19:42:39 10° N
FREGAT/IRIS 2.8 19:42:27 65° NNW 19:42:27 65° NNW 19:45:06 10° NNW
Cosmos 44 Rocket 3.1 19:39:14 10° SSW 19:43:57 84° NW 19:46:44 24° NNE
SL-8 R/B 4.3 19:41:21 10° W 19:46:04 52° NNW 19:47:49 34° NE
Meteor 2-10 3.9 19:41:55 10° S 19:46:51 61° E 19:51:53 10° NNE
Cosmos 1726 2.2 19:45:10 10° SSW 19:48:51 73° W 19:52:34 10° N
Cosmos 2098 Rocket 3.5 19:45:08 10° SSW 19:49:30 74° W 19:55:11 10° N
Cosmos 2123 Rocket 3.9 19:45:02 10° N 19:51:15 67° E 19:57:29 10° SSE
BREEZE M DEB (TANK) 4.4 19:34:29 10° WNW 19:52:55 62° NNE 19:54:57 41° ENE
Atlas Centaur 2 3.9 19:49:33 10° SW 19:52:56 18° S 19:54:54 15° SSE
Cosmos 1605 Rocket 3.9 19:50:27 10° SSE 19:56:23 57° E 20:02:20 10° NNE
CSL-04 DEB 4.2 19:56:23 81° E 19:56:26 82° ENE 20:00:30 10° NNW
Delta 2 Rocket 4.5 19:53:29 10° WSW 19:56:09 27° SSW 19:56:09 27° SSW
Gbstr 26 Del rocket 3.6 19:51:30 10° NW 19:56:42 78° NNE 19:58:18 51° ESE
Aureole 2 Rocket 2.7 19:54:34 10° NNW 19:58:14 77° NNW 19:58:14 77° NNW
Spot 2 Rocket 4.4 20:00:23 33° NNE 20:00:23 33° NNE 20:03:39 10° N
Cosmos 2221 4.1 19:55:48 10° SW 19:59:46 36° WNW 20:03:49 10° N
USA 234 4.2 20:02:15 29° NE 20:03:52 32° NNE 20:09:31 10° NW
CZ-4C R/B 2.2 20:00:14 10° SW 20:05:25 77° NW 20:08:29 29° NNE
Cosmos 1110 Rocket 3.9 20:02:23 10° NNW 20:07:42 70° ENE 20:07:45 70° ENE
H-2A R/B 3.8 20:07:32 23° SSW 20:09:38 45° W 20:13:25 10° NNW
In-Cosmos 22 Rocket 4.1 20:07:39 10° N 20:13:25 87° E 20:15:17 46° SSE
Cosmos 2237 Rocket 2.4 20:08:08 10° NNW 20:13:12 54° NE 20:13:12 54° NE
DELTA 2 R/B (1) 4.5 20:13:18 10° W 20:18:25 38° SSW 20:19:09 36° S
Cosmos 2227 Rocket 3.8 20:15:35 10° S 20:17:28 22° S 20:17:28 22° S
Resurs 01 Rocket 3.2 20:23:45 26° N 20:23:45 26° N 20:25:44 10° N
SL-16 R/B 3.7 20:19:05 10° N 20:21:48 23° NNE 20:21:48 23° NNE
Meteor 2-3 Rocket 4.5 20:19:01 10° N 20:22:51 40° NNE 20:22:51 40° NNE
Envisat 3.9 20:35:33 40° NNW 20:35:33 40° NNW 20:38:47 10° NNW
Cosmos 1980 3.9 20:31:40 10° NNW 20:36:25 64° NNW 20:36:25 64° NNW
NOSS 0 Rocket 4.0 20:31:15 10° NNW 20:37:24 71° WSW 20:37:56 67° SSW
COSMOS 2428 4.4 20:34:50 10° NW 20:39:40 30° WSW 20:44:03 12° SSW
Cosmos 2333 Rocket 2.7 20:37:37 10° NNW 20:43:12 55° WSW 20:43:38 53° SW
BREEZE-M DEB (TANK) 4.2 20:47:37 10° WNW 20:52:04 36° NW 20:52:04 36° NW
USA 267 3.7 21:12:42 56° W 21:12:42 56° W 21:17:56 10° WSW
Cosmos 2219 Rocket 4.3 21:20:32 10° NW 21:24:28 20° W 21:25:02 20° WSW
